Location: Gleizolles
(44.4833°N, 6.7667°E)
Time: 00:32:18
(UTC+00:00)

Vanguard 2 Rocket - Pass Details

Date: 15 June 2024
Orbit: 555 x 3302 km, 32.9° (Epoch: 24 July)

Event Time Altitude Azimuth Distance (km) Brightness Sun altitude
Rises 07:50:24 0° 267° (W) 6,604 10.8 40.2°
Reaches altitude 10° 07:55:41 10° 262° (W) 5,192 10.4 41.2°
Maximum altitude 08:07:57 39° 201° (SSW) 2,381 9.3 43.3°
Drops below altitude 10° 08:15:22 10° 135° (SE) 3,144 10.4 44.6°
Sets 08:17:47 0° 127° (SE) 3,825 10.7 45.1°
